When you browse on this site, cookies collect data to enhance your experience and personalize the content and advertising you see.
Visit our Privacy Policy to learn more. By continuing to use the site, you agree to this use of cookies and data.
  • In Schweiz
  • Länderverzeichnis
  • Für 7 Tage
  • Wassertemperatur
  • Wetterkarte
  • Widgets
  • user-avatar
    Anmelden

    Stündliche Wetter Jalalabad

    Heute, 27 Februar, Donnerstag

    Zeit Temperatur Niederschläge Wind Luftdruck Luftfeuchtigkeit
    00:00 +18°C° 0 mm 0 m/S 710 mmHg 41%
    01:00 +18°C° 0 mm 0 m/S 710 mmHg 42%
    02:00 +17°C° 0 mm 0 m/S 709 mmHg 42%
    03:00 +17°C° 0 mm 0 m/S 709 mmHg 44%
    04:00 +16°C° 0 mm 0 m/S 709 mmHg 45%
    05:00 +16°C° 0 mm 0 m/S 709 mmHg 47%
    06:00 +16°C° 0 mm 0 m/S 709 mmHg 47%
    07:00 +17°C° 0 mm 0 m/S 710 mmHg 47%
    08:00 +17°C° 0 mm 0 m/S 711 mmHg 47%
    09:00 +21°C° 0 mm 1 m/S 711 mmHg 42%
    10:00 +22°C° 0 mm 1 m/S 711 mmHg 37%
    11:00 +23°C° 0 mm 1 m/S 711 mmHg 33%
    12:00 +24°C° 0 mm 2 m/S 710 mmHg 32%
    13:00 +25°C° 0 mm 2 m/S 710 mmHg 31%
    14:00 +25°C° 0 mm 3 m/S 710 mmHg 31%
    15:00 +25°C° 0.1 mm 3 m/S 709 mmHg 35%
    16:00 +24°C° 0.1 mm 3 m/S 709 mmHg 38%
    17:00 +22°C° 0.1 mm 3 m/S 708 mmHg 42%
    18:00 +21°C° 0.1 mm 3 m/S 709 mmHg 46%
    19:00 +20°C° 0.1 mm 3 m/S 709 mmHg 50%
    20:00 +19°C° 0.1 mm 3 m/S 709 mmHg 54%
    21:00 +18°C° 2.6 mm 2 m/S 709 mmHg 64%
    22:00 +17°C° 2.6 mm 2 m/S 709 mmHg 74%
    23:00 +16°C° 2.6 mm 2 m/S 709 mmHg 83%

    Morgen, 28 Februar, Freitag

    Zeit Temperatur Niederschläge Wind Luftdruck Luftfeuchtigkeit
    00:00 +16°C° 0.3 mm 1 m/S 708 mmHg 82%
    01:00 +16°C° 0.3 mm 1 m/S 708 mmHg 81%
    02:00 +16°C° 0.3 mm 1 m/S 708 mmHg 80%
    03:00 +15°C° 0.9 mm 1 m/S 708 mmHg 82%
    04:00 +15°C° 0.9 mm 1 m/S 707 mmHg 84%
    05:00 +15°C° 0.9 mm 1 m/S 707 mmHg 87%
    06:00 +15°C° 1.6 mm 1 m/S 708 mmHg 86%
    07:00 +15°C° 1.6 mm 1 m/S 708 mmHg 85%
    08:00 +15°C° 1.6 mm 1 m/S 708 mmHg 85%
    09:00 +15°C° 0.1 mm 1 m/S 709 mmHg 79%
    10:00 +16°C° 0.1 mm 1 m/S 709 mmHg 74%
    11:00 +18°C° 0.1 mm 1 m/S 709 mmHg 68%
    12:00 +18°C° 0.3 mm 1 m/S 709 mmHg 68%
    13:00 +18°C° 0.3 mm 1 m/S 708 mmHg 68%
    14:00 +18°C° 0.3 mm 1 m/S 708 mmHg 68%
    15:00 +19°C° 0.1 mm 1 m/S 708 mmHg 66%
    16:00 +19°C° 0.1 mm 1 m/S 708 mmHg 64%
    17:00 +20°C° 0.1 mm 1 m/S 707 mmHg 62%
    18:00 +19°C° 0.7 mm 1 m/S 708 mmHg 65%
    19:00 +17°C° 0.7 mm 2 m/S 708 mmHg 69%
    20:00 +16°C° 0.7 mm 3 m/S 709 mmHg 72%
    21:00 +16°C° 1.4 mm 3 m/S 709 mmHg 75%
    22:00 +15°C° 1.4 mm 2 m/S 709 mmHg 78%
    23:00 +14°C° 1.4 mm 2 m/S 709 mmHg 82%

    übermorgen, 29 Februar, Samstag

    Zeit Temperatur Niederschläge Wind Luftdruck Luftfeuchtigkeit
    00:00 +14°C° 2.4 mm 2 m/S 709 mmHg 84%
    01:00 +14°C° 2.4 mm 2 m/S 708 mmHg 87%
    02:00 +13°C° 2.4 mm 1 m/S 708 mmHg 89%
    03:00 +13°C° 2.1 mm 1 m/S 708 mmHg 90%
    04:00 +13°C° 2.1 mm 1 m/S 707 mmHg 90%
    05:00 +13°C° 2.1 mm 1 m/S 707 mmHg 90%
    06:00 +13°C° 1.1 mm 1 m/S 708 mmHg 90%
    07:00 +13°C° 1.1 mm 1 m/S 708 mmHg 90%
    08:00 +13°C° 1.1 mm 1 m/S 708 mmHg 90%
    09:00 +13°C° 0.9 mm 1 m/S 709 mmHg 89%
    10:00 +12°C° 0.9 mm 0 m/S 709 mmHg 89%
    11:00 +12°C° 0.9 mm 0 m/S 709 mmHg 88%
    12:00 +13°C° 0.5 mm 1 m/S 709 mmHg 86%
    13:00 +13°C° 0.5 mm 1 m/S 709 mmHg 84%
    14:00 +14°C° 0.5 mm 1 m/S 708 mmHg 82%
    15:00 +14°C° 0.1 mm 1 m/S 708 mmHg 81%
    16:00 +14°C° 0.1 mm 1 m/S 708 mmHg 80%
    17:00 +14°C° 0.1 mm 1 m/S 708 mmHg 78%
    18:00 +14°C° 0.1 mm 1 m/S 709 mmHg 81%
    19:00 +13°C° 0.1 mm 0 m/S 709 mmHg 83%
    20:00 +12°C° 0.1 mm 0 m/S 709 mmHg 85%
    21:00 +12°C° 0 mm 0 m/S 709 mmHg 85%
    22:00 +12°C° 0 mm 0 m/S 709 mmHg 84%
    23:00 +11°C° 0 mm 0 m/S 709 mmHg 84%

    1 März, Sonntag

    Zeit Temperatur Niederschläge Wind Luftdruck Luftfeuchtigkeit
    00:00 +11°C° 0 mm 0 m/S 709 mmHg 83%
    01:00 +11°C° 0 mm 0 m/S 709 mmHg 82%
    02:00 +11°C° 0 mm 0 m/S 709 mmHg 81%
    03:00 +11°C° 0 mm 0 m/S 709 mmHg 79%
    04:00 +11°C° 0 mm 0 m/S 708 mmHg 77%
    05:00 +11°C° 0 mm 0 m/S 708 mmHg 76%
    06:00 +11°C° 0 mm 0 m/S 709 mmHg 74%
    07:00 +12°C° 0 mm 0 m/S 709 mmHg 71%
    08:00 +13°C° 0 mm 0 m/S 710 mmHg 69%
    09:00 +14°C° 0 mm 0 m/S 710 mmHg 62%
    10:00 +16°C° 0 mm 0 m/S 710 mmHg 55%
    11:00 +19°C° 0 mm 1 m/S 710 mmHg 48%
    12:00 +20°C° 0 mm 1 m/S 710 mmHg 45%
    13:00 +21°C° 0 mm 1 m/S 710 mmHg 41%
    14:00 +22°C° 0 mm 1 m/S 709 mmHg 38%
    15:00 +22°C° 0 mm 1 m/S 709 mmHg 38%
    16:00 +23°C° 0 mm 1 m/S 709 mmHg 38%
    17:00 +21°C° 0 mm 0 m/S 708 mmHg 38%
    18:00 +20°C° 0 mm 0 m/S 709 mmHg 44%
    19:00 +18°C° 0 mm 0 m/S 709 mmHg 50%
    20:00 +17°C° 0 mm 0 m/S 709 mmHg 57%
    21:00 +17°C° 0 mm 0 m/S 709 mmHg 56%
    22:00 +17°C° 0 mm 0 m/S 709 mmHg 56%
    23:00 +16°C° 0 mm 0 m/S 709 mmHg 56%

    2 März, Montag

    Zeit Temperatur Niederschläge Wind Luftdruck Luftfeuchtigkeit
    00:00 +16°C° 0 mm 0 m/S 709 mmHg 55%
    01:00 +16°C° 0 mm 0 m/S 709 mmHg 54%
    02:00 +15°C° 0 mm 0 m/S 708 mmHg 54%
    03:00 +15°C° 0 mm 0 m/S 708 mmHg 53%
    04:00 +15°C° 0 mm 0 m/S 707 mmHg 53%
    05:00 +14°C° 0 mm 0 m/S 707 mmHg 53%
    06:00 +15°C° 0 mm 0 m/S 707 mmHg 52%
    07:00 +16°C° 0 mm 0 m/S 708 mmHg 52%
    08:00 +16°C° 0 mm 0 m/S 708 mmHg 52%
    09:00 +20°C° 0 mm 1 m/S 708 mmHg 45%
    10:00 +21°C° 0 mm 1 m/S 709 mmHg 38%
    11:00 +22°C° 0 mm 1 m/S 709 mmHg 32%
    12:00 +23°C° 0 mm 1 m/S 708 mmHg 31%
    13:00 +24°C° 0 mm 1 m/S 708 mmHg 29%
    14:00 +25°C° 0 mm 1 m/S 708 mmHg 28%
    15:00 +25°C° 0 mm 1 m/S 708 mmHg 28%
    16:00 +25°C° 0 mm 1 m/S 708 mmHg 28%
    17:00 +25°C° 0 mm 1 m/S 707 mmHg 28%
    18:00 +24°C° 0 mm 1 m/S 708 mmHg 35%
    19:00 +20°C° 0 mm 0 m/S 708 mmHg 42%
    20:00 +19°C° 0 mm 0 m/S 709 mmHg 48%
    21:00 +19°C° 0 mm 0 m/S 709 mmHg 48%
    22:00 +20°C° 0 mm 1 m/S 709 mmHg 47%
    23:00 +20°C° 0 mm 1 m/S 709 mmHg 46%

    3 März, Dienstag

    Zeit Temperatur Niederschläge Wind Luftdruck Luftfeuchtigkeit
    00:00 +19°C° 0 mm 1 m/S 709 mmHg 46%
    01:00 +19°C° 0 mm 1 m/S 709 mmHg 45%
    02:00 +19°C° 0 mm 1 m/S 709 mmHg 45%
    03:00 +18°C° 0 mm 1 m/S 708 mmHg 45%
    04:00 +18°C° 0 mm 1 m/S 708 mmHg 45%
    05:00 +16°C° 0 mm 1 m/S 708 mmHg 45%
    06:00 +18°C° 0 mm 1 m/S 708 mmHg 46%
    07:00 +18°C° 0 mm 1 m/S 708 mmHg 46%
    08:00 +19°C° 0 mm 1 m/S 708 mmHg 46%
    09:00 +20°C° 0 mm 1 m/S 708 mmHg 40%
    10:00 +22°C° 0 mm 1 m/S 708 mmHg 34%
    11:00 +23°C° 0 mm 1 m/S 708 mmHg 29%
    12:00 +24°C° 0 mm 1 m/S 708 mmHg 27%
    13:00 +25°C° 0 mm 1 m/S 707 mmHg 26%
    14:00 +25°C° 0 mm 1 m/S 707 mmHg 25%
    15:00 +25°C° 0 mm 1 m/S 706 mmHg 25%
    16:00 +25°C° 0 mm 1 m/S 706 mmHg 25%
    17:00 +25°C° 0 mm 2 m/S 705 mmHg 26%
    18:00 +24°C° 0 mm 1 m/S 706 mmHg 32%
    19:00 +23°C° 0 mm 1 m/S 706 mmHg 39%
    20:00 +21°C° 0 mm 1 m/S 706 mmHg 45%
    21:00 +21°C° 0 mm 1 m/S 706 mmHg 46%
    22:00 +21°C° 0 mm 1 m/S 706 mmHg 46%
    23:00 +20°C° 0 mm 1 m/S 706 mmHg 47%
    Mehr zeigen